Location: Roanoke
(37.2710°N, 79.9420°W)
Time: 19:19:16
(UTC-05:00)

Courier 1B Rocket - Pass Details

Date: 26 November 2019
Orbit: 920 x 1202 km, 28.2° (Epoch: 09 December)

Event Time Altitude Azimuth Distance (km) Brightness Sun altitude
Rises 13:17:20 0° 246° (WSW) 3,590 8.5 29.4°
Reaches altitude 10° 13:20:05 10° 238° (WSW) 2,674 8.2 29.3°
Maximum altitude 13:25:56 37° 173° (S) 1,500 7.5 28.9°
Drops below altitude 10° 13:32:08 10° 108° (ESE) 2,844 7.5 28.4°
Sets 13:35:09 0° 101° (E) 3,846 8.0 28.2°
